| time (UTC) | temp F | wind direction | speed MPH | gust MPH | rain 1hr in | rain 24hr in | rain mn in | humidity % | barometer mb |
| 20260505100005 | 52 | 201 | 1.0 | 2.0 | 0.00 | 0.00 | 0.00 | 89 | 1014.3 |
| 20260505095004 | 52 | 201 | 1.0 | 1.0 | 0.00 | 0.00 | 0.00 | 89 | 1014.3 |
| 20260505094504 | 52 | 201 | 1.0 | 1.0 | 0.00 | 0.00 | 0.00 | 90 | 1014.3 |
| 20260505094004 | 51 | 201 | 0.0 | 2.0 | 0.00 | 0.00 | 0.00 | 89 | 1014.2 |
| 20260505093504 | 51 | 201 | 1.0 | 2.0 | 0.00 | 0.00 | 0.00 | 89 | 1014.2 |
| 20260505093004 | 51 | 201 | 1.0 | 2.0 | 0.00 | 0.00 | 0.00 | 89 | 1014.2 |
| 20260505092505 | 51 | 189 | 1.0 | 2.0 | 0.00 | 0.00 | 0.00 | 89 | 1014.2 |
| 20260505092004 | 51 | 177 | 1.0 | 1.0 | 0.00 | 0.00 | 0.00 | 89 | 1014.2 |
| 20260505091504 | 51 | 259 | 1.0 | 1.0 | 0.00 | 0.00 | 0.00 | 89 | 1014.0 |
| 20260505091005 | 51 | 259 | 1.0 | 2.0 | 0.00 | 0.00 | 0.00 | 88 | 1014.0 |
| 20260505090504 | 51 | 259 | 0.0 | 0.0 | 0.00 | 0.00 | 0.00 | 88 | 1014.0 |
| 20260505090004 | 51 | 259 | 1.0 | 1.0 | 0.00 | 0.00 | 0.00 | 88 | 1013.9 |
| 20260505085504 | 51 | 259 | 1.0 | 1.0 | 0.00 | 0.00 | 0.00 | 88 | 1013.9 |
| 20260505085004 | 52 | 259 | 1.0 | 2.0 | 0.00 | 0.00 | 0.00 | 88 | 1013.8 |
| 20260505084504 | 52 | 259 | 1.0 | 2.0 | 0.00 | 0.00 | 0.00 | 88 | 1013.9 |
| 20260505084004 | 52 | 259 | 0.0 | 2.0 | 0.00 | 0.00 | 0.00 | 88 | 1013.8 |
| 20260505083505 | 52 | 259 | 1.0 | 2.0 | 0.00 | 0.00 | 0.00 | 88 | 1013.7 |
| 20260505083005 | 52 | 259 | 1.0 | 2.0 | 0.00 | 0.00 | 0.00 | 88 | 1013.8 |
| 20260505082504 | 52 | 259 | 1.0 | 2.0 | 0.00 | 0.00 | 0.00 | 88 | 1013.8 |
| 20260505082004 | 52 | 259 | 0.0 | 0.0 | 0.00 | 0.00 | 0.00 | 88 | 1013.8 |
| 20260505080504 | 52 | 259 | 0.0 | 2.0 | 0.00 | 0.00 | 0.00 | 87 | 1013.7 |
| 20260505080004 | 53 | 240 | 1.0 | 2.0 | 0.00 | 0.00 | 0.00 | 87 | 1013.7 |
| 20260505075504 | 53 | 206 | 2.0 | 2.0 | 0.00 | 0.00 | 0.00 | 87 | 1013.7 |
| 20260505075004 | 53 | 305 | 1.0 | 2.0 | 0.00 | 0.00 | 0.00 | 86 | 1013.6 |
| 20260505074504 | 53 | 317 | 0.0 | 2.0 | 0.00 | 0.00 | 0.00 | 86 | 1013.6 |
| 20260505073504 | 54 | 213 | 0.0 | 2.0 | 0.00 | 0.00 | 0.00 | 86 | 1013.5 |
| 20260505073005 | 54 | 213 | 1.0 | 2.0 | 0.00 | 0.00 | 0.00 | 86 | 1013.3 |
| 20260505072505 | 54 | 205 | 1.0 | 3.0 | 0.00 | 0.00 | 0.00 | 86 | 1013.2 |
| 20260505072004 | 54 | 181 | 2.0 | 5.0 | 0.00 | 0.00 | 0.00 | 86 | 1013.1 |
| 20260505071004 | 54 | 217 | 1.0 | 1.0 | 0.00 | 0.00 | 0.00 | 86 | 1013.0 |
| 20260505070504 | 54 | 194 | 1.0 | 2.0 | 0.00 | 0.00 | 0.00 | 85 | 1012.9 |
| 20260505070004 | 54 | 241 | 1.0 | 2.0 | 0.00 | 0.00 | 0.00 | 85 | 1012.8 |
| 20260505065504 | 55 | 241 | 1.0 | 2.0 | 0.00 | 0.00 | 0.00 | 84 | 1012.7 |
| 20260505065004 | 55 | 233 | 2.0 | 2.0 | 0.00 | 0.00 | 0.00 | 84 | 1012.7 |
| 20260505064505 | 55 | 183 | 1.0 | 2.0 | 0.00 | 0.00 | 0.00 | 83 | 1012.7 |
| 20260505064004 | 56 | 183 | 1.0 | 2.0 | 0.00 | 0.00 | 0.00 | 82 | 1012.7 |
| 20260505063504 | 56 | 173 | 1.0 | 2.0 | 0.00 | 0.00 | 0.00 | 82 | 1012.7 |
| 20260505063004 | 56 | 209 | 1.0 | 2.0 | 0.00 | 0.00 | 0.00 | 82 | 1012.6 |
| 20260505062504 | 56 | 209 | 1.0 | 1.0 | 0.00 | 0.00 | 0.00 | 82 | 1012.5 |
| 20260505062005 | 57 | 209 | 1.0 | 2.0 | 0.00 | 0.00 | 0.00 | 82 | 1012.3 |
| 20260505061504 | 57 | 209 | 2.0 | 2.0 | 0.00 | 0.00 | 0.00 | 82 | 1012.2 |
| 20260505060504 | 57 | 194 | 1.0 | 2.0 | 0.00 | 0.00 | 0.00 | 81 | 1012.1 |
| 20260505055504 | 58 | 232 | 0.0 | 2.0 | 0.00 | 0.00 | 0.00 | 80 | 1012.1 |
| 20260505055004 | 58 | 139 | 1.0 | 2.0 | 0.00 | 0.00 | 0.00 | 80 | 1012.2 |
| 20260505054504 | 58 | 307 | 0.0 | 3.0 | 0.00 | 0.00 | 0.00 | 80 | 1012.1 |
| 20260505054004 | 58 | 9 | 1.0 | 3.0 | 0.00 | 0.00 | 0.00 | 80 | 1012.1 |
| 20260505053505 | 59 | 208 | 0.0 | 2.0 | 0.00 | 0.00 | 0.00 | 80 | 1012.1 |
| 20260505052504 | 59 | 114 | 1.0 | 3.0 | 0.00 | 0.00 | 0.00 | 79 | 1012.0 |
| 20260505052005 | 59 | 161 | 2.0 | 3.0 | 0.00 | 0.00 | 0.00 | 79 | 1012.0 |
| 20260505051504 | 59 | 180 | 0.0 | 1.0 | 0.00 | 0.00 | 0.00 | 77 | 1012.0 |
| 20260505051004 | 59 | 277 | 2.0 | 5.0 | 0.00 | 0.00 | 0.00 | 78 | 1011.9 |
| 20260505050504 | 59 | 331 | 1.0 | 2.0 | 0.00 | 0.00 | 0.00 | 78 | 1011.8 |
| 20260505041504 | 64 | 85 | 1.0 | 2.0 | 0.00 | 0.00 | 0.00 | 71 | 1011.3 |
| 20260505041004 | 65 | 55 | 1.0 | 3.0 | 0.00 | 0.00 | 0.00 | 69 | 1011.2 |
| 20260505040504 | 65 | 132 | 1.0 | 2.0 | 0.00 | 0.00 | 0.00 | 68 | 1011.0 |
| 20260505040005 | 65 | 182 | 1.0 | 3.0 | 0.00 | 0.00 | 0.00 | 67 | 1010.9 |
| 20260505035505 | 66 | 279 | 1.0 | 2.0 | 0.00 | 0.00 | 0.00 | 66 | 1010.8 |
| 20260505035005 | 67 | 325 | 1.0 | 2.0 | 0.00 | 0.00 | 0.00 | 65 | 1010.8 |
| 20260505034506 | 67 | 322 | 1.0 | 2.0 | 0.00 | 0.00 | 0.00 | 63 | 1010.8 |
| 20260505034006 | 67 | 34 | 1.0 | 2.0 | 0.00 | 0.00 | 0.00 | 63 | 1010.7 |
| 20260505033505 | 68 | 108 | 1.0 | 2.0 | 0.00 | 0.00 | 0.00 | 62 | 1010.5 |
| 20260505033007 | 68 | 333 | 1.0 | 2.0 | 0.00 | 0.00 | 0.00 | 62 | 1010.5 |
| 20260505032505 | 68 | 317 | 2.0 | 5.0 | 0.00 | 0.00 | 0.00 | 62 | 1010.4 |
| 20260505032005 | 69 | 354 | 1.0 | 2.0 | 0.00 | 0.00 | 0.00 | 62 | 1010.3 |
| 20260505031006 | 69 | 0 | 1.0 | 2.0 | 0.00 | 0.00 | 0.00 | 62 | 1010.2 |
| 20260505030505 | 69 | 263 | 1.0 | 6.0 | 0.00 | 0.00 | 0.00 | 62 | 1010.2 |
| 20260505030006 | 70 | 277 | 1.0 | 2.0 | 0.00 | 0.00 | 0.00 | 62 | 1010.1 |
| 20260505025005 | 71 | 278 | 1.0 | 3.0 | 0.00 | 0.00 | 0.00 | 62 | 1010.1 |
| 20260505024505 | 72 | 284 | 1.0 | 7.0 | 0.00 | 0.00 | 0.00 | 59 | 1010.0 |
| 20260505024006 | 73 | 272 | 2.0 | 7.0 | 0.00 | 0.00 | 0.00 | 60 | 1010.0 |
| 20260505023006 | 74 | 201 | 6.0 | 10.0 | 0.00 | 0.00 | 0.00 | 57 | 1009.8 |
| 20260505022505 | 75 | 201 | 5.0 | 8.0 | 0.00 | 0.00 | 0.00 | 57 | 1009.8 |
| 20260505022005 | 75 | 227 | 3.0 | 8.0 | 0.00 | 0.00 | 0.00 | 56 | 1009.8 |
| 20260505021507 | 75 | 218 | 3.0 | 7.0 | 0.00 | 0.00 | 0.00 | 56 | 1009.8 |
| 20260505021005 | 75 | 201 | 3.0 | 7.0 | 0.00 | 0.00 | 0.00 | 56 | 1009.8 |
| 20260505020505 | 75 | 203 | 5.0 | 7.0 | 0.00 | 0.00 | 0.00 | 58 | 1009.8 |
| 20260505020006 | 75 | 202 | 3.0 | 7.0 | 0.00 | 0.00 | 0.00 | 57 | 1009.8 |
| 20260505015505 | 76 | 166 | 4.0 | 8.0 | 0.00 | 0.00 | 0.00 | 56 | 1009.7 |
| 20260505015005 | 76 | 193 | 4.0 | 9.0 | 0.00 | 0.00 | 0.00 | 56 | 1009.7 |
| 20260505014506 | 76 | 196 | 5.0 | 9.0 | 0.00 | 0.00 | 0.00 | 56 | 1009.7 |
| 20260505014005 | 76 | 190 | 6.0 | 10.0 | 0.00 | 0.00 | 0.00 | 56 | 1009.7 |
| 20260505012005 | 77 | 167 | 6.0 | 10.0 | 0.00 | 0.00 | 0.00 | 56 | 1009.7 |
| 20260505011507 | 77 | 184 | 7.0 | 10.0 | 0.00 | 0.00 | 0.00 | 55 | 1009.8 |
| 20260505011005 | 77 | 211 | 7.0 | 10.0 | 0.00 | 0.00 | 0.00 | 56 | 1009.8 |
| 20260505010505 | 77 | 200 | 6.0 | 12.0 | 0.00 | 0.00 | 0.00 | 56 | 1009.8 |
| 20260505010005 | 77 | 213 | 5.0 | 13.0 | 0.00 | 0.00 | 0.00 | 57 | 1009.8 |
| 20260505005505 | 78 | 172 | 7.0 | 13.0 | 0.00 | 0.00 | 0.00 | 55 | 1009.9 |
| 20260505005005 | 78 | 204 | 4.0 | 8.0 | 0.00 | 0.00 | 0.00 | 55 | 1009.9 |
| 20260505003505 | 78 | 193 | 9.0 | 13.0 | 0.00 | 0.00 | 0.00 | 56 | 1009.9 |
| 20260505002505 | 77 | 182 | 5.0 | 10.0 | 0.00 | 0.00 | 0.00 | 56 | 1010.0 |
| 20260505002005 | 77 | 197 | 5.0 | 13.0 | 0.00 | 0.00 | 0.00 | 58 | 1009.9 |
| 20260505001506 | 77 | 186 | 8.0 | 16.0 | 0.00 | 0.00 | 0.00 | 57 | 1010.0 |
| 20260505000505 | 77 | 200 | 8.0 | 14.0 | 0.00 | 0.00 | 0.00 | 57 | 1010.1 |
| 20260505000005 | 78 | 145 | 9.0 | 17.0 | 0.00 | 0.00 | 0.00 | 56 | 1010.2 |
| 20260504235505 | 78 | 194 | 8.0 | 13.0 | 0.00 | 0.00 | 0.00 | 56 | 1010.2 |
| 20260504235005 | 78 | 195 | 7.0 | 14.0 | 0.00 | 0.00 | 0.00 | 56 | 1010.1 |
| 20260504234005 | 78 | 182 | 7.0 | 14.0 | 0.00 | 0.00 | 0.00 | 56 | 1010.1 |
| 20260504233505 | 78 | 187 | 6.0 | 12.0 | 0.00 | 0.00 | 0.00 | 55 | 1010.2 |
| 20260504233006 | 78 | 186 | 8.0 | 12.0 | 0.00 | 0.00 | 0.00 | 56 | 1010.2 |
| 20260504232505 | 78 | 194 | 6.0 | 13.0 | 0.00 | 0.00 | 0.00 | 55 | 1010.2 |
| 20260504232005 | 78 | 186 | 5.0 | 13.0 | 0.00 | 0.00 | 0.00 | 56 | 1010.3 |
| 20260504231505 | 77 | 179 | 9.0 | 14.0 | 0.00 | 0.00 | 0.00 | 57 | 1010.3 |
| 20260504231005 | 77 | 159 | 5.0 | 12.0 | 0.00 | 0.00 | 0.00 | 58 | 1010.4 |
| 20260504230505 | 76 | 185 | 9.0 | 16.0 | 0.00 | 0.00 | 0.00 | 58 | 1010.4 |
| 20260504225505 | 76 | 172 | 5.0 | 14.0 | 0.00 | 0.00 | 0.00 | 58 | 1010.5 |
| 20260504225005 | 76 | 156 | 7.0 | 17.0 | 0.00 | 0.00 | 0.00 | 58 | 1010.6 |
| 20260504224505 | 76 | 165 | 7.0 | 13.0 | 0.00 | 0.00 | 0.00 | 57 | 1010.7 |
| 20260504224005 | 76 | 159 | 7.0 | 12.0 | 0.00 | 0.00 | 0.00 | 56 | 1010.8 |
| 20260504223505 | 75 | 162 | 7.0 | 16.0 | 0.00 | 0.00 | 0.00 | 60 | 1010.8 |
| 20260504223006 | 75 | 167 | 10.0 | 14.0 | 0.00 | 0.00 | 0.00 | 57 | 1010.9 |
| 20260504222505 | 75 | 208 | 5.0 | 10.0 | 0.00 | 0.00 | 0.00 | 61 | 1010.9 |
| 20260504221505 | 74 | 162 | 6.0 | 16.0 | 0.00 | 0.00 | 0.00 | 60 | 1011.0 |
| 20260504221005 | 75 | 161 | 9.0 | 13.0 | 0.00 | 0.00 | 0.00 | 58 | 1011.0 |
| 20260504220005 | 75 | 183 | 5.0 | 9.0 | 0.00 | 0.00 | 0.00 | 60 | 1011.2 |
| 20260504215505 | 74 | 174 | 6.0 | 16.0 | 0.00 | 0.00 | 0.00 | 59 | 1011.2 |
| 20260504215005 | 74 | 142 | 5.0 | 13.0 | 0.00 | 0.00 | 0.00 | 58 | 1011.3 |
| 20260504214505 | 74 | 200 | 5.0 | 13.0 | 0.00 | 0.00 | 0.00 | 60 | 1011.3 |
| 20260504213505 | 73 | 132 | 6.0 | 13.0 | 0.00 | 0.00 | 0.00 | 60 | 1011.5 |
| 20260504212005 | 72 | 203 | 5.0 | 12.0 | 0.00 | 0.00 | 0.00 | 61 | 1011.6 |
| 20260504211505 | 72 | 258 | 3.0 | 12.0 | 0.00 | 0.00 | 0.00 | 60 | 1011.7 |
| 20260504210505 | 72 | 193 | 9.0 | 16.0 | 0.00 | 0.00 | 0.00 | 60 | 1012.1 |
| 20260504210005 | 71 | 143 | 5.0 | 8.0 | 0.00 | 0.00 | 0.00 | 62 | 1012.1 |
| 20260504205505 | 71 | 208 | 4.0 | 12.0 | 0.00 | 0.00 | 0.00 | 62 | 1012.2 |
| 20260504205005 | 71 | 166 | 6.0 | 10.0 | 0.00 | 0.00 | 0.00 | 63 | 1012.3 |
| 20260504204505 | 70 | 184 | 6.0 | 8.0 | 0.00 | 0.00 | 0.00 | 62 | 1012.4 |
| 20260504204005 | 71 | 132 | 8.0 | 13.0 | 0.00 | 0.00 | 0.00 | 61 | 1012.4 |
| 20260504203505 | 71 | 180 | 3.0 | 9.0 | 0.00 | 0.00 | 0.00 | 63 | 1012.4 |
| 20260504203005 | 70 | 153 | 6.0 | 10.0 | 0.00 | 0.00 | 0.00 | 64 | 1012.4 |
| 20260504202505 | 70 | 124 | 5.0 | 10.0 | 0.00 | 0.00 | 0.00 | 64 | 1012.5 |
| 20260504202005 | 69 | 124 | 6.0 | 10.0 | 0.00 | 0.00 | 0.00 | 66 | 1012.6 |
| 20260504201505 | 69 | 121 | 5.0 | 10.0 | 0.00 | 0.00 | 0.00 | 63 | 1012.6 |
| 20260504201005 | 69 | 168 | 7.0 | 10.0 | 0.00 | 0.00 | 0.00 | 63 | 1012.6 |
| 20260504200505 | 69 | 196 | 4.0 | 12.0 | 0.00 | 0.00 | 0.00 | 65 | 1012.7 |
| 20260504200005 | 68 | 124 | 7.0 | 10.0 | 0.00 | 0.00 | 0.00 | 64 | 1012.8 |
| 20260504195506 | 68 | 193 | 6.0 | 10.0 | 0.00 | 0.00 | 0.00 | 65 | 1012.7 |
| 20260504194505 | 67 | 199 | 3.0 | 8.0 | 0.00 | 0.00 | 0.00 | 67 | 1012.8 |
| 20260504194005 | 67 | 166 | 4.0 | 7.0 | 0.00 | 0.00 | 0.00 | 65 | 1012.8 |
| 20260504193505 | 67 | 158 | 3.0 | 8.0 | 0.00 | 0.00 | 0.00 | 66 | 1013.0 |
| 20260504193005 | 67 | 144 | 4.0 | 8.0 | 0.00 | 0.00 | 0.00 | 67 | 1013.0 |
| 20260504192505 | 66 | 171 | 3.0 | 7.0 | 0.00 | 0.00 | 0.00 | 67 | 1013.1 |
| 20260504192005 | 66 | 156 | 4.0 | 9.0 | 0.00 | 0.00 | 0.00 | 67 | 1013.1 |
| 20260504191505 | 66 | 186 | 5.0 | 9.0 | 0.00 | 0.00 | 0.00 | 68 | 1013.1 |
| 20260504191006 | 66 | 146 | 6.0 | 10.0 | 0.00 | 0.00 | 0.00 | 67 | 1013.3 |
| 20260504190505 | 66 | 167 | 3.0 | 9.0 | 0.00 | 0.00 | 0.00 | 67 | 1013.3 |
| 20260504185505 | 65 | 204 | 5.0 | 10.0 | 0.00 | 0.00 | 0.00 | 69 | 1013.4 |
| 20260504185005 | 65 | 146 | 9.0 | 12.0 | 0.00 | 0.00 | 0.00 | 68 | 1013.5 |
| 20260504184505 | 65 | 187 | 6.0 | 12.0 | 0.00 | 0.00 | 0.00 | 70 | 1013.5 |
| 20260504184005 | 64 | 191 | 6.0 | 10.0 | 0.00 | 0.00 | 0.00 | 70 | 1013.5 |
| 20260504183504 | 64 | 210 | 6.0 | 10.0 | 0.00 | 0.00 | 0.00 | 72 | 1013.5 |
| 20260504183005 | 63 | 211 | 3.0 | 8.0 | 0.00 | 0.00 | 0.00 | 71 | 1013.4 |
| 20260504182505 | 63 | 118 | 9.0 | 13.0 | 0.00 | 0.00 | 0.00 | 71 | 1013.5 |
| 20260504181005 | 64 | 209 | 4.0 | 13.0 | 0.00 | 0.00 | 0.00 | 70 | 1013.4 |
| 20260504180504 | 64 | 190 | 5.0 | 12.0 | 0.00 | 0.00 | 0.00 | 71 | 1013.5 |
| 20260504180006 | 64 | 168 | 8.0 | 12.0 | 0.00 | 0.00 | 0.00 | 72 | 1013.5 |
| 20260504175505 | 63 | 195 | 3.0 | 9.0 | 0.00 | 0.00 | 0.00 | 71 | 1013.5 |
| 20260504175005 | 63 | 180 | 6.0 | 10.0 | 0.00 | 0.00 | 0.00 | 72 | 1013.5 |
| 20260504174505 | 63 | 183 | 5.0 | 12.0 | 0.00 | 0.00 | 0.00 | 72 | 1013.5 |
| 20260504173505 | 63 | 210 | 7.0 | 13.0 | 0.00 | 0.00 | 0.00 | 72 | 1013.5 |
| 20260504173005 | 62 | 170 | 5.0 | 10.0 | 0.00 | 0.00 | 0.00 | 74 | 1013.5 |
| 20260504172505 | 62 | 151 | 7.0 | 12.0 | 0.00 | 0.00 | 0.00 | 72 | 1013.5 |
| 20260504171505 | 62 | 153 | 5.0 | 13.0 | 0.00 | 0.00 | 0.00 | 73 | 1013.3 |
| 20260504171005 | 62 | 191 | 5.0 | 12.0 | 0.00 | 0.00 | 0.00 | 74 | 1013.2 |
| 20260504170505 | 61 | 196 | 6.0 | 12.0 | 0.00 | 0.00 | 0.00 | 74 | 1013.3 |
| 20260504150505 | 56 | 0 | 3.0 | 10.0 | 0.00 | 0.00 | 0.00 | 83 | 1012.8 |
| 20260504141004 | 54 | 210 | 5.0 | 12.0 | 0.00 | 0.00 | 0.00 | 86 | 1012.4 |
| 20260504140505 | 54 | 197 | 5.0 | 12.0 | 0.00 | 0.00 | 0.00 | 86 | 1012.3 |
| 20260504130504 | 55 | 202 | 5.0 | 14.0 | 0.00 | 0.00 | 0.00 | 85 | 1011.2 |
| 20260504110505 | 59 | 198 | 9.0 | 14.0 | 0.00 | 0.00 | 0.00 | 76 | 1009.4 |